Location: Gloden
(48.4833°N, 15.3167°E)
Time: 20:23:30
(UTC+00:00)

Meteor 1-13 Rocket - Pass Details

Date: 15 December 2019
Orbit: 830 x 912 km, 81.3° (Epoch: 25 January)

Event Time Altitude Azimuth Distance (km) Brightness Sun altitude
Exits shadow 04:32:43 - 349° (NNW) 2,705 6.6 -20.5°
Reaches altitude 10° 04:33:22 10° 349° (N) 2,457 6.4 -20.4°
Maximum altitude 04:38:56 86° 77° (ENE) 851 4.2 -19.5°
Drops below altitude 10° 04:44:34 10° 169° (SSE) 2,477 6.9 -18.6°
Sets 04:47:00 0° 169° (S) 3,421 7.7 -18.2°
